DW4212 Weather Reports


Display with metric or nautical units.
time (UTC)temp
F
wind
direction
speed
MPH
gust
MPH
rain 1hr
in
rain 24hr
in
rain mn
in
humidity
%
barometer
mb
20260903181936 89 294 0.0 5.0 0.00 0.00 0.00 18 1025.9
20260903180946 89 300 1.0 6.0 0.00 0.00 0.00 17 1025.9
20260903175950 90 310 0.0 7.0 0.00 0.00 0.00 17 1025.8
20260903174935 91 329 1.0 8.0 0.00 0.00 0.00 16 1025.9
20260903173945 92 333 2.0 9.0 0.00 0.00 0.00 16 1025.8
20260903172945 93 346 2.0 6.0 0.00 0.00 0.00 16 1025.8
20260903171934 94 292 1.0 6.0 0.00 0.00 0.00 15 1025.9
20260903170932 94 287 2.0 10.0 0.00 0.00 0.00 15 1025.8
20260903165934 94 317 1.0 8.0 0.00 0.00 0.00 14 1025.9
20260903164942 95 15 1.0 7.0 0.00 0.00 0.00 14 1025.8
20260903163951 95 331 1.0 8.0 0.00 0.00 0.00 14 1025.7
20260903162933 95 355 2.0 9.0 0.00 0.00 0.00 13 1025.6
20260903161942 95 35 3.0 12.0 0.00 0.00 0.00 13 1025.6
20260903160933 96 337 2.0 9.0 0.00 0.00 0.00 12 1025.6
20260903155935 96 348 3.0 11.0 0.00 0.00 0.00 12 1025.6
20260903154942 96 43 1.0 10.0 0.00 0.00 0.00 12 1025.6
20260903153951 97 355 4.0 12.0 0.00 0.00 0.00 12 1025.6
20260903152948 96 328 2.0 8.0 0.00 0.00 0.00 13 1025.6
20260903151937 95 306 1.0 6.0 0.00 0.00 0.00 14 1025.7
20260903150950 95 80 0.0 5.0 0.00 0.00 0.00 14 1025.7
20260903145950 95 62 0.0 1.0 0.00 0.00 0.00 16 1025.8
20260903144937 94 87 0.0 4.0 0.00 0.00 0.00 19 1026.0
20260903143945 94 136 0.0 1.0 0.00 0.00 0.00 19 1025.9
20260903142946 95 175 0.0 7.0 0.00 0.00 0.00 18 1026.0
20260903141938 95 182 1.0 7.0 0.00 0.00 0.00 18 1025.9
20260903140948 95 186 0.0 4.0 0.00 0.00 0.00 19 1026.0
20260903135949 95 186 3.0 11.0 0.00 0.00 0.00 19 1026.2
20260903134953 95 182 1.0 0.0 0.00 0.00 0.00 19 1025.9
20260903133935 95 153 0.0 5.0 0.00 0.00 0.00 20 1026.4
20260903132937 94 165 0.0 6.0 0.00 0.00 0.00 21 1026.5
20260903131951 93 138 0.0 2.0 0.00 0.00 0.00 23 1026.5
20260903131018 93 142 1.0 9.0 0.00 0.00 0.00 23 1026.7
20260903125939 93 78 0.0 7.0 0.00 0.00 0.00 23 1026.7
20260903123944 93 214 1.0 7.0 0.00 0.00 0.00 23 1026.7
20260903122946 92 171 1.0 7.0 0.00 0.00 0.00 24 1026.9
20260903121934 92 179 1.0 8.0 0.00 0.00 0.00 24 1026.9
20260903120945 92 106 0.0 9.0 0.00 0.00 0.00 24 1026.9
20260903115948 91 79 0.0 7.0 0.00 0.00 0.00 25 1027.0
20260903114934 91 128 0.0 1.0 0.00 0.00 0.00 24 1027.2
20260903113941 91 165 0.0 8.0 0.00 0.00 0.00 24 1027.2
20260903112951 92 183 0.0 6.0 0.00 0.00 0.00 24 1027.2
20260903111940 91 181 1.0 7.0 0.00 0.00 0.00 24 1027.3
20260903110947 91 173 0.0 8.0 0.00 0.00 0.00 22 1027.3
20260903105932 90 192 3.0 7.0 0.00 0.00 0.00 24 1027.4
20260903104939 90 171 3.0 8.0 0.00 0.00 0.00 25 1027.5
20260903103948 90 186 1.0 7.0 0.00 0.00 0.00 25 1027.5
20260903102951 89 184 0.0 8.0 0.00 0.00 0.00 24 1027.4
20260903101939 89 177 2.0 8.0 0.00 0.00 0.00 25 1027.5
20260903100932 88 177 1.0 6.0 0.00 0.00 0.00 25 1027.6
20260903095934 88 177 2.0 5.0 0.00 0.00 0.00 25 1027.6
20260903094942 87 177 1.0 8.0 0.00 0.00 0.00 26 1027.7
20260903093951 86 178 2.0 6.0 0.00 0.00 0.00 25 1027.6
20260903091939 84 315 0.0 0.0 0.00 0.00 0.00 28 1027.5
20260903090951 83 315 0.0 1.0 0.00 0.00 0.00 28 1027.5
20260903085952 82 315 0.0 0.0 0.00 0.00 0.00 27 1027.4
20260903084940 80 315 0.0 0.0 0.00 0.00 0.00 30 1027.4
20260903083949 79 315 0.0 0.0 0.00 0.00 0.00 31 1027.4
20260903082932 78 315 0.0 0.0 0.00 0.00 0.00 31 1027.4
20260903081944 77 315 0.0 0.0 0.00 0.00 0.00 33 1027.3
20260903080950 76 315 0.0 0.0 0.00 0.00 0.00 33 1027.4
20260903075951 75 315 0.0 0.0 0.00 0.00 0.00 34 1027.4
20260903074934 74 315 0.0 0.0 0.00 0.00 0.00 34 1027.6
20260903073939 73 315 0.0 0.0 0.00 0.00 0.00 36 1027.6
20260903072942 71 315 0.0 0.0 0.00 0.00 0.00 34 1027.5
20260903071948 70 315 0.0 0.0 0.00 0.00 0.00 35 1027.4
20260903070919 69 315 0.0 0.0 0.00 0.00 0.00 35 1027.4
20260903065921 68 315 0.0 0.0 0.00 0.00 0.00 35 1027.3
20260903064929 67 315 0.0 0.0 0.00 0.00 0.00 36 1027.3
20260903063918 67 314 0.0 0.0 0.00 0.00 0.00 39 1027.3
20260903062924 65 314 0.0 0.0 0.00 0.00 0.00 40 1027.2
20260903061911 65 314 0.0 0.0 0.00 0.00 0.00 39 1027.1
20260903060920 64 314 0.0 0.0 0.00 0.00 0.00 39 1027.0
20260903055923 65 314 0.0 0.0 0.00 0.00 0.00 38 1026.9
20260903054916 65 314 0.0 0.0 0.00 0.00 0.00 37 1026.9
20260903053924 66 314 0.0 0.0 0.00 0.00 0.00 36 1026.8
20260903052924 67 314 0.0 0.0 0.00 0.00 0.00 35 1026.6
20260903051915 67 314 0.0 0.0 0.00 0.00 0.00 35 1026.6
20260903050923 66 314 0.0 0.0 0.00 0.00 0.00 35 1026.6
20260903045927 66 314 0.0 0.0 0.00 0.00 0.00 36 1026.6
20260903044915 65 314 0.0 0.0 0.00 0.00 0.00 37 1026.6
20260903043928 65 314 0.0 0.0 0.00 0.00 0.00 37 1026.6
20260903042930 65 314 0.0 0.0 0.00 0.00 0.00 37 1026.6
20260903041919 66 314 0.0 0.0 0.00 0.00 0.00 36 1026.5
20260903040928 66 314 0.0 0.0 0.00 0.00 0.00 36 1026.5
20260903035911 66 314 0.0 0.0 0.00 0.00 0.00 35 1026.4
20260903034921 66 314 0.0 0.0 0.00 0.00 0.00 36 1026.4
20260903034011 67 314 0.0 0.0 0.00 0.00 0.00 35 1026.3
20260903033006 66 314 0.0 0.0 0.00 0.00 0.00 35 1026.3
20260903031929 65 314 0.0 0.0 0.00 0.00 0.00 36 1026.4
20260903030922 65 314 0.0 0.0 0.00 0.00 0.00 37 1026.4
20260903025925 65 314 0.0 0.0 0.00 0.00 0.00 38 1026.4
20260903024911 65 314 0.0 0.0 0.00 0.00 0.00 39 1026.5
20260903023918 65 314 0.0 0.0 0.00 0.00 0.00 39 1026.6
20260903022924 65 314 0.0 0.0 0.00 0.00 0.00 39 1026.5
20260903021913 65 314 0.0 0.0 0.00 0.00 0.00 38 1026.4
20260903020923 66 314 0.0 0.0 0.00 0.00 0.00 37 1026.3
20260903015925 66 314 0.0 0.0 0.00 0.00 0.00 37 1026.3
20260903014918 67 314 0.0 0.0 0.00 0.00 0.00 36 1026.3
20260903013928 67 314 0.0 0.0 0.00 0.00 0.00 35 1026.2
20260903012929 67 314 0.0 0.0 0.00 0.00 0.00 35 1026.3
20260903011919 68 314 0.0 0.0 0.00 0.00 0.00 33 1026.3
20260903010910 68 314 0.0 0.0 0.00 0.00 0.00 33 1026.2
20260903004925 68 314 0.0 0.0 0.00 0.00 0.00 33 1026.2
20260903003913 68 314 0.0 0.0 0.00 0.00 0.00 34 1026.2
20260903002915 69 314 0.0 0.0 0.00 0.00 0.00 33 1026.2
20260903001924 71 314 0.0 0.0 0.00 0.00 0.00 29 1026.3
20260903000915 71 314 0.0 0.0 0.00 0.00 0.00 29 1026.2
20260902235917 71 314 0.0 0.0 0.00 0.00 0.00 29 1026.2
20260902234925 71 314 0.0 0.0 0.00 0.00 0.00 31 1026.3
20260902233913 74 314 0.0 1.0 0.00 0.00 0.00 26 1026.2
20260902232912 74 314 0.0 0.0 0.00 0.00 0.00 26 1026.2
20260902231919 74 314 0.0 0.0 0.00 0.00 0.00 26 1026.2
20260902230911 74 314 0.0 0.0 0.00 0.00 0.00 26 1026.2
20260902225913 75 314 0.0 0.0 0.00 0.00 0.00 25 1026.2
20260902224921 74 314 0.0 0.0 0.00 0.00 0.00 25 1026.1
20260902223929 74 313 0.0 0.0 0.00 0.00 0.00 26 1026.0
20260902222931 74 313 0.0 2.0 0.00 0.00 0.00 26 1025.9
20260902221919 75 311 0.0 0.0 0.00 0.00 0.00 25 1025.9
20260902220929 76 311 0.0 0.0 0.00 0.00 0.00 25 1025.8
20260902215926 76 311 0.0 0.0 0.00 0.00 0.00 24 1025.9
20260902214914 77 311 0.0 1.0 0.00 0.00 0.00 24 1025.8
20260902213923 78 306 0.0 5.0 0.00 0.00 0.00 23 1025.8
20260902211923 79 304 0.0 7.0 0.00 0.00 0.00 22 1025.8
20260902210911 79 229 0.0 4.0 0.00 0.00 0.00 22 1025.8
20260902205931 79 229 0.0 4.0 0.00 0.00 0.00 22 1025.7
20260902204918 79 220 0.0 2.0 0.00 0.00 0.00 23 1025.6
20260902203926 79 220 0.0 3.0 0.00 0.00 0.00 24 1025.6
20260902202923 79 220 0.0 5.0 0.00 0.00 0.00 24 1025.5
20260902201914 80 216 0.0 0.0 0.00 0.00 0.00 25 1025.5
20260902200921 80 216 0.0 0.0 0.00 0.00 0.00 26 1025.5
20260902195922 80 216 0.0 0.0 0.00 0.00 0.00 26 1025.4
20260902194930 81 216 0.0 0.0 0.00 0.00 0.00 27 1025.2
20260902193916 81 216 0.0 0.0 0.00 0.00 0.00 26 1024.9
20260902192920 82 216 0.0 2.0 0.00 0.00 0.00 26 1024.7
20260902191930 82 216 1.0 4.0 0.00 0.00 0.00 26 1024.6
20260902190919 83 165 0.0 0.0 0.00 0.00 0.00 26 1024.5
20260902185921 84 165 0.0 0.0 0.00 0.00 0.00 25 1024.3
20260902184915 84 165 0.0 3.0 0.00 0.00 0.00 24 1024.3
20260902183918 85 165 0.0 0.0 0.00 0.00 0.00 23 1024.2
20260902182920 86 165 0.0 0.0 0.00 0.00 0.00 23 1024.2